Missoula, MT

11:11 PM MDT on March 24, 2017 (GMT -0600)
Missoula International

Weather History for KMSO - April, 2014

Change the Weather History Date:

Thursday, April 17, 2014

  Actual Average Record
Temperature  
Mean Temperature 49 °F 46 °F  
Max Temperature 57 °F 59 °F 86 °F (1936)
Min Temperature 40 °F 33 °F 16 °F (2013)
Degree Days  
Heating Degree Days 16 19  
Month to date heating degree days 361 352  
Since 1 July heating degree days 6739 6535  
Cooling Degree Days 0 0  
Month to date cooling degree days 0 0  
Year to date cooling degree days 0 0  
Moisture  
Dew Point 37 °F    
Average Humidity 73    
Maximum Humidity 100    
Minimum Humidity 46    
Precipitation  
Precipitation 0.10 in 0.04 in 0.35 in (1956)
Month to date precipitation 0.24 0.68  
Year to date precipitation 5.35 3.23  
Snow  
Snow 0.00 in - - ()
Month to date snowfall T  
Year to date snowfall 51.8  
Since 1 July snowfall 65.7  
Snow Depth 0.00 in    
Sea Level Pressure  
Sea Level Pressure 29.88 in    
Wind  
Wind Speed 5 mph (NW)    
Max Wind Speed 15 mph    
Max Gust Speed 18 mph    
Visibility 10 miles    
Events Rain    
T = Trace of Precipitation, MM = Missing Value Source: NWS Daily Summary

Daily Weather History Graph

Daily Weather History Graph

Search for Another Location

Airport or City:

Trip Planner

Search our weather history database for the weather conditions in past years. The results will help you decide how hot, cold, wet, or windy it might be!

Date:

Astronomy

Apr. 17, 2014 Rise Set
Actual Time 6:44 AM MDT 8:27 PM MDT
Civil Twilight 6:12 AM MDT 8:59 PM MDT
Nautical Twilight 5:33 AM MDT 9:39 PM MDT
Astronomical Twilight 4:51 AM MDT 10:22 PM MDT
Moon 11:25 PM MDT (4/17) 8:13 AM MDT (4/17)
Length of Visible Light 14h 47m
Length of Day
13h 42m
Waning Gibbous, 93% of the Moon is Illuminated
Apr 17
Waning Gibbous
Apr 22
Last Quarter
Apr 29
New
May 6
First Quarter
May 14
Full

Hourly Weather History & Observations

Time (MDT) Temp. Windchill Dew Point Humidity Pressure Visibility Wind Dir Wind Speed Gust Speed Precip Events Conditions
12:53 AM 43.0 °F - 32.0 °F 65% 30.02 in 10.0 mi Calm Calm - N/A   Overcast
1:53 AM 42.1 °F 40.2 °F 33.1 °F 70% 30.01 in 10.0 mi Variable 3.5 mph - N/A   Overcast
2:53 AM 42.1 °F - 33.1 °F 70% 30.00 in 10.0 mi Calm Calm - N/A   Overcast
3:53 AM 39.9 °F 37.8 °F 34.0 °F 79% 29.99 in 10.0 mi WSW 3.5 mph - N/A   Overcast
4:53 AM 41.0 °F - 33.1 °F 73% 29.98 in 10.0 mi Calm Calm - N/A   Overcast
5:53 AM 39.2 °F - 33.8 °F 81% 29.94 in 10.0 mi Calm Calm - N/A   Overcast
6:53 AM 42.1 °F 37.7 °F 34.0 °F 73% 29.96 in 10.0 mi ESE 6.9 mph - N/A   Overcast
7:53 AM 41.0 °F 38.0 °F 35.1 °F 79% 29.95 in 10.0 mi WNW 4.6 mph - N/A   Overcast
8:53 AM 43.0 °F - 35.1 °F 74% 29.94 in 10.0 mi Calm Calm - N/A   Overcast
9:53 AM 46.4 °F 45.2 °F 35.6 °F 66% 29.90 in 10.0 mi SE 3.5 mph - N/A   Scattered Clouds
10:53 AM 50.0 °F - 32.0 °F 50% 29.88 in 10.0 mi Variable 3.5 mph - N/A   Overcast
11:53 AM 51.1 °F - 32.0 °F 48% 29.88 in 10.0 mi Calm Calm - N/A   Overcast
12:53 PM 53.1 °F - 34.0 °F 48% 29.87 in 10.0 mi West 5.8 mph - N/A   Overcast
1:53 PM 53.1 °F - 36.0 °F 52% 29.86 in 10.0 mi East 3.5 mph - 0.00 in Rain Light Rain
2:53 PM 55.0 °F - 36.0 °F 49% 29.84 in 10.0 mi ENE 6.9 mph - 0.00 in   Overcast
3:53 PM 55.9 °F - 35.1 °F 45% 29.81 in 10.0 mi Variable 4.6 mph - N/A   Overcast
4:53 PM 57.0 °F - 37.0 °F 47% 29.78 in 10.0 mi NNW 9.2 mph - N/A   Overcast
5:53 PM 54.0 °F - 39.0 °F 57% 29.79 in 10.0 mi NW 10.4 mph - N/A   Overcast
6:53 PM 51.1 °F - 41.0 °F 68% 29.78 in 10.0 mi WNW 13.8 mph - 0.00 in   Overcast
7:53 PM 46.9 °F - 44.1 °F 90% 29.80 in 10.0 mi NW 11.5 mph - 0.01 in Rain Light Rain
8:53 PM 46.0 °F 43.1 °F 44.1 °F 93% 29.78 in 10.0 mi WNW 5.8 mph - 0.01 in Rain Light Rain
9:53 PM 46.0 °F 44.8 °F 44.1 °F 93% 29.78 in 8.0 mi NW 3.5 mph - 0.03 in Rain Light Rain
10:53 PM 45.0 °F 42.6 °F 44.1 °F 97% 29.77 in 10.0 mi NW 4.6 mph - 0.00 in Rain Light Rain
11:53 PM 45.0 °F 42.6 °F 44.1 °F 97% 29.77 in 10.0 mi NW 4.6 mph - 0.03 in Rain Light Rain